Back to catalog

STARLINK-4285

AliveCommunicationsVLEO
NORAD 52991·PAYLOAD·🇺🇸 United States

Launched Jul 7, 2022 from Cape Canaveral Space Force Station

Loading…

Next Passes (next 24 hours)

TLE

FreshSource: CelesTrak SupGP

Epoch: Sep 14, 2026, 13:24 UTC

1 52991C 22076F   26257.55881944  .00004172  00000+0  12329-3 0  2579
2 52991  53.1574 321.8421 0001466  76.2662 353.0647 15.34379733    14

Track STARLINK-4285 in real time with AllMySat

Download on the App Store